Location: Chomutov
(50.4500°N, 13.4333°E)
Time: 15:44:43
(UTC+02:00)

Envisat - Visible Passes

Search period start: 25 September 2022 00:00
Search period end: 05 October 2022 00:00
Orbit: 764 x 765 km, 98.2° (Epoch: 24 September)

Date Brightness Start Highest point End Pass type
(mag) Time Alt. Az. Time Alt. Az. Time Alt. Az.
25 Sep 5.6 04:18:50 10° NE 04:22:21 18° E 04:25:50 10° SE visible
25 Sep 3.0 05:56:49 10° N 06:01:54 72° WNW 06:06:57 10° SSW visible
26 Sep 3.6 05:19:52 10° NNE 05:24:55 58° E 05:29:55 10° S visible
27 Sep 4.9 04:43:18 10° NNE 04:47:43 29° E 04:52:08 10° SSE visible
27 Sep 3.3 06:22:04 10° N 06:26:55 45° WNW 06:31:44 10° SW visible
28 Sep 5.8 04:07:29 10° NE 04:10:20 15° E 04:13:10 10° ESE visible
28 Sep 3.0 05:44:57 10° NNE 05:50:03 88° WNW 05:55:09 10° SSW visible
29 Sep 4.0 05:08:05 10° NNE 05:13:01 47° E 05:17:54 10° S visible
30 Sep 5.2 04:31:41 10° NE 04:35:46 24° E 04:39:50 10° SE visible
30 Sep 3.1 06:10:08 10° N 06:15:07 56° WNW 06:20:04 10° SW visible
01 Oct 5.9 03:56:30 10° ENE 03:58:18 12° E 04:00:06 10° ESE visible
01 Oct 3.2 05:33:05 10° NNE 05:38:12 76° ESE 05:43:16 10° S visible
02 Oct 4.4 04:56:21 10° NNE 05:01:05 38° E 05:05:48 10° SSE visible
02 Oct 3.6 06:35:28 10° N 06:40:05 36° WNW 06:44:40 10° SW visible
03 Oct 5.5 04:20:09 10° NE 04:23:46 19° E 04:27:23 10° SE visible
03 Oct 3.0 05:58:13 10° N 06:03:18 69° WNW 06:08:20 10° SSW visible
04 Oct 3.5 05:21:16 10° NNE 05:26:19 61° E 05:31:20 10° S visible
